Location: Augustenthal
(51.7167°N, 10.2833°E)
Time: 11:52:21
(UTC+00:00)

Cosmos 2251 Rocket - Pass Details

Date: 18 May 2021
Orbit: 765 x 791 km, 74.0° (Epoch: 19 June)

Event Time Altitude Azimuth Distance (km) Brightness Sun altitude
Rises 23:32:33 0° 334° (NNW) 3,247 7.8 -18.4°
Reaches altitude 10° 23:34:56 10° 335° (NNW) 2,316 6.9 -18.4°
Maximum altitude 23:40:12 88° 246° (WSW) 774 3.4 -18.3°
Enters shadow 23:42:54 30° 158° (SSE) 1,364 4.3 -18.3°
